EA3CNO-1 Weather Reports


time (UTC)temp
C
wind
direction
speed
KPH
gust
KPH
rain 1hr
cm
rain 24hr
cm
rain mn
cm
humidity
%
barometer
mb
20190419070033 15 76 4.8 22.5 0.00 0.00 0.00 71 1020.8
20190419065034 15 77 3.2 19.3 0.00 0.00 0.00 71 1020.7
20190419064034 15 114 8.0 22.5 0.00 0.00 0.00 70 1020.6
20190419063033 15 101 6.4 19.3 0.00 0.00 0.00 70 1020.6
20190419062033 15 103 3.2 19.3 0.00 0.00 0.00 69 1020.5
20190419061034 15 79 8.0 22.5 0.00 0.00 0.00 67 1020.4
20190419060033 15 101 1.6 19.3 0.00 0.00 0.00 67 1020.2
20190419055034 15 111 3.2 24.1 0.00 0.00 0.00 67 1020.1
20190419054034 15 94 4.8 29.0 0.00 0.00 0.00 67 1020.1
20190419053033 15 77 3.2 29.0 0.00 0.00 0.00 67 1019.9
20190419052033 15 115 8.0 17.7 0.00 0.00 0.00 67 1019.9
20190419051033 15 84 4.8 20.9 0.00 0.00 0.00 67 1019.7
20190419050034 15 88 1.6 16.1 0.00 0.00 0.00 67 1019.5
20190419045034 15 100 3.2 17.7 0.00 0.00 0.00 67 1019.3
20190419044033 15 93 6.4 17.7 0.00 0.00 0.00 67 1019.2
20190419043033 15 107 3.2 17.7 0.00 0.00 0.00 68 1019.0
20190419042033 15 88 3.2 12.9 0.00 0.00 0.00 69 1018.8
20190419041034 15 110 3.2 16.1 0.00 0.00 0.00 69 1018.8
20190419040034 15 85 4.8 16.1 0.00 0.00 0.00 69 1018.8
20190419035034 14 104 6.4 17.7 0.00 0.00 0.00 69 1018.8
20190419034033 15 39 3.2 22.5 0.00 0.00 0.00 69 1018.9
20190419033033 14 53 4.8 19.3 0.00 0.00 0.00 69 1018.8
20190419032033 14 41 8.0 19.3 0.00 0.00 0.00 69 1019.0
20190419031033 14 93 4.8 22.5 0.00 0.00 0.00 70 1018.8
20190419030034 14 94 6.4 25.7 0.00 0.00 0.00 70 1018.9
20190419025034 14 70 8.0 19.3 0.00 0.00 0.00 70 1019.1
20190419024033 14 103 8.0 16.1 0.00 0.00 0.00 70 1019.1
20190419023033 14 62 4.8 14.5 0.00 0.00 0.00 70 1019.1
20190419022033 14 79 4.8 16.1 0.00 0.00 0.00 70 1019.0
20190419021034 14 86 3.2 22.5 0.00 0.00 0.00 69 1019.2
20190419020033 14 81 4.8 20.9 0.00 0.00 0.00 69 1019.2
20190419015033 14 103 6.4 17.7 0.00 0.00 0.00 69 1019.0
20190419014034 15 86 3.2 19.3 0.00 0.00 0.00 69 1019.1
20190419013033 15 117 9.7 24.1 0.00 0.00 0.00 69 1019.2
20190419012033 15 87 4.8 25.7 0.00 0.00 0.00 69 1018.8
20190419011033 14 90 4.8 17.7 0.00 0.00 0.00 70 1018.6
20190419010033 14 133 8.0 29.0 0.00 0.00 0.00 70 1018.8
20190419005033 15 17 4.8 22.5 0.00 0.00 0.00 69 1018.9
20190419004033 15 115 6.4 22.5 0.00 0.00 0.00 69 1018.8
20190419003033 15 41 3.2 17.7 0.00 0.00 0.00 68 1019.0
20190419002033 15 113 8.0 27.4 0.00 0.00 0.00 68 1019.1
20190419001033 15 95 11.3 29.0 0.00 0.00 0.00 68 1019.2
20190419000033 15 75 9.7 20.9 0.00 0.00 0.00 67 1019.3
20190418235034 15 104 3.2 27.4 0.00 0.00 0.00 67 1019.2
20190418234033 15 116 4.8 29.0 0.00 0.00 0.00 66 1019.1
20190418233034 15 109 6.4 27.4 0.00 0.00 0.00 66 1019.0
20190418232033 15 59 6.4 24.1 0.00 0.00 0.00 66 1018.7
20190418231033 15 98 8.0 25.7 0.00 0.00 0.00 65 1018.6
20190418230033 15 105 8.0 24.1 0.00 0.00 0.00 65 1018.6
20190418225033 15 119 8.0 20.9 0.00 0.00 0.00 65 1018.7
20190418224033 15 98 11.3 30.6 0.00 0.00 0.00 64 1018.7
20190418223033 15 83 9.7 25.7 0.00 0.00 0.00 64 1018.5
20190418222033 15 99 11.3 27.4 0.00 0.00 0.00 65 1018.8
20190418221032 15 67 8.0 20.9 0.00 0.00 0.00 66 1018.7
20190418220033 15 114 8.0 27.4 0.00 0.00 0.00 66 1018.5
20190418215033 15 97 11.3 25.7 0.00 0.00 0.00 67 1018.6
20190418214033 15 110 8.0 27.4 0.00 0.00 0.00 68 1018.8
20190418213033 15 81 9.7 37.0 0.00 0.00 0.00 68 1018.9
20190418212034 15 91 11.3 22.5 0.00 0.00 0.00 68 1018.9
20190418211033 15 66 6.4 24.1 0.00 0.00 0.00 68 1018.7
20190418210033 15 73 6.4 19.3 0.00 0.00 0.00 68 1018.7
20190418205033 14 95 6.4 24.1 0.00 0.00 0.00 68 1018.6
20190418204033 14 102 6.4 20.9 0.00 0.00 0.00 68 1018.6
20190418203033 14 80 6.4 24.1 0.00 0.00 0.00 67 1018.6
20190418202033 14 88 11.3 30.6 0.00 0.00 0.00 67 1018.4
20190418201033 14 85 4.8 20.9 0.00 0.00 0.00 68 1018.0
20190418200032 14 88 4.8 25.7 0.00 0.00 0.00 69 1018.0
20190418195033 14 74 9.7 27.4 0.00 0.00 0.00 73 1018.1
20190418194032 14 79 4.8 16.1 0.00 0.00 0.00 76 1017.8
20190418193033 14 71 6.4 19.3 0.00 0.00 0.00 78 1017.5
20190418192033 14 63 3.2 12.9 0.00 0.00 0.00 79 1017.6
20190418191033 14 71 4.8 14.5 0.00 0.00 0.00 79 1017.6
20190418190033 14 85 4.8 16.1 0.00 0.00 0.00 78 1017.3
20190418185033 14 94 6.4 29.0 0.00 0.00 0.00 78 1017.4
20190418184032 14 72 6.4 22.5 0.00 0.00 0.00 79 1017.3
20190418183033 14 90 8.0 22.5 0.00 0.00 0.00 79 1017.4
20190418182033 14 88 6.4 19.3 0.00 0.00 0.00 79 1017.2
20190418181032 14 91 4.8 16.1 0.00 0.00 0.00 79 1017.2
20190418180035 14 92 6.4 30.6 0.00 0.00 0.00 79 1016.6
20190418175035 15 78 6.4 24.1 0.00 0.00 0.00 78 1016.5
20190418174034 15 87 9.7 20.9 0.00 0.00 0.00 77 1016.6
20190418173033 15 55 8.0 30.6 0.00 0.00 0.00 76 1016.4
20190418172033 15 96 9.7 27.4 0.00 0.00 0.00 77 1016.4
20190418171032 15 98 11.3 24.1 0.00 0.00 0.00 77 1016.7
20190418170032 15 83 12.9 29.0 0.00 0.00 0.00 75 1016.6
20190418165033 15 89 14.5 25.7 0.00 0.00 0.00 71 1016.8
20190418164032 15 87 9.7 33.8 0.00 0.00 0.00 69 1016.7
20190418163033 16 98 9.7 25.7 0.00 0.00 0.00 67 1016.5
20190418162033 16 72 9.7 33.8 0.00 0.00 0.00 66 1016.1
20190418161032 16 88 12.9 29.0 0.00 0.00 0.00 67 1016.1
20190418160033 15 92 14.5 30.6 0.00 0.00 0.00 66 1016.4
20190418155032 15 90 12.9 29.0 0.00 0.00 0.00 69 1016.9
20190418154033 16 76 14.5 30.6 0.00 0.00 0.00 67 1016.9
20190418153032 16 91 12.9 29.0 0.00 0.00 0.00 66 1016.8
20190418152032 16 89 12.9 24.1 0.00 0.00 0.00 67 1017.0
20190418151032 15 79 11.3 25.7 0.00 0.00 0.00 69 1017.0
20190418150033 15 73 11.3 27.4 0.00 0.00 0.00 71 1017.2
20190418145032 15 63 11.3 30.6 0.00 0.00 0.00 72 1017.4
20190418144034 15 81 14.5 33.8 0.00 0.00 0.00 71 1017.3
20190418143032 16 77 11.3 24.1 0.00 0.00 0.00 73 1017.4
20190418142032 16 79 6.4 25.7 0.00 0.00 0.00 75 1018.1
20190418141033 16 78 11.3 25.7 0.00 0.00 0.00 74 1017.4
20190418140032 16 83 8.0 24.1 0.00 0.00 0.00 74 1017.0
20190418135033 16 95 12.9 27.4 0.00 0.00 0.00 74 1016.7
20190418134032 16 95 11.3 25.7 0.00 0.00 0.00 75 1015.8
20190418133033 16 88 11.3 32.2 0.00 0.00 0.00 73 1015.7
20190418132033 17 89 11.3 30.6 0.00 0.00 0.00 72 1016.2
20190418131032 16 89 8.0 29.0 0.00 0.00 0.00 72 1016.2
20190418130032 16 77 6.4 24.1 0.00 0.00 0.00 72 1016.5
20190418125032 16 77 6.4 19.3 0.00 0.00 0.00 74 1016.9
20190418124032 16 88 6.4 25.7 0.00 0.00 0.00 76 1017.4
20190418123033 16 102 8.0 25.7 0.00 0.00 0.00 75 1017.5
20190418122033 16 115 8.0 20.9 0.00 0.00 0.00 76 1017.7
20190418121032 16 82 11.3 17.7 0.00 0.00 0.00 74 1017.8
20190418120032 16 90 6.4 17.7 0.00 0.00 0.00 73 1017.6
20190418115032 16 94 6.4 20.9 0.00 0.00 0.00 73 1017.3
20190418114032 16 78 4.8 19.3 0.00 0.00 0.00 71 1017.4
20190418113032 16 91 9.7 27.4 0.00 0.00 0.00 68 1017.4
20190418112032 16 82 6.4 22.5 0.00 0.00 0.00 66 1017.4
20190418111032 16 86 8.0 20.9 0.00 0.00 0.00 67 1017.7
20190418110032 15 112 8.0 22.5 0.00 0.00 0.00 66 1017.7
20190418104534 15 84 9.7 20.9 0.00 0.00 0.00 64 1017.7
20190418103534 15 95 6.4 16.1 0.00 0.00 0.00 63 1017.9
20190418101534 15 67 4.8 20.9 0.00 0.00 0.00 60 1018.0
20190418100533 15 68 3.2 16.1 0.00 0.00 0.00 59 1017.8
20190418095534 15 91 3.2 17.7 0.00 0.00 0.00 58 1017.9
20190418094533 15 94 8.0 19.3 0.00 0.00 0.00 60 1018.2
20190418093534 15 74 4.8 16.1 0.00 0.00 0.00 62 1018.3
20190418092534 15 89 4.8 22.5 0.00 0.00 0.00 65 1018.5
20190418091534 14 87 3.2 9.7 0.00 0.00 0.00 68 1018.5
20190418090533 14 114 4.8 12.9 0.00 0.00 0.00 65 1019.1
20190418085534 14 102 3.2 17.7 0.00 0.00 0.00 64 1018.9
20190418084534 14 77 4.8 24.1 0.00 0.00 0.00 65 1018.8
20190418083534 14 106 9.7 22.5 0.00 0.00 0.00 69 1018.0
20190418082534 14 75 8.0 16.1 0.00 0.00 0.00 75 1017.9
20190418081534 14 78 3.2 12.9 0.00 0.00 0.00 77 1018.4
20190418080534 13 63 6.4 16.1 0.00 0.00 0.00 78 1018.6
20190418075533 13 84 3.2 12.9 0.00 0.00 0.00 79 1018.7
20190418074534 13 88 3.2 12.9 0.00 0.00 0.00 79 1018.6
20190418073533 13 80 6.4 16.1 0.00 0.00 0.00 78 1018.8
20190418072535 13 62 3.2 6.4 0.00 0.00 0.00 77 1018.5
20190418071533 13 68 3.2 6.4 0.00 0.00 0.00 77 1018.5
20190418070533 13 99 3.2 6.4 0.00 0.00 0.00 77 1018.3